[Date Prev][Date Next][Thread Prev][Thread Next][Date Index][Thread Index]

[jamsat-news:1757] jas2info #297



========================   ºÇ¿·¾ðÊó   ==============================

        Last updated ¡¡16Nov2002 ¡¡18:00(JST)   #297

====================================================================
   
£±¡Ë¥¢¥Þ¥Á¥å¥¢ÄÌ¿®±ÒÀ±¾ðÊ󡢣ƣϥ·¥ê¡¼¥º¤Îµ°Æ»Í×ÁÇ¡¢¥Æ¥ì¥á¥È¥ê¡¢£Ñ£Ó£Ï¤Î
¡¡¡¡¡¡¾õ¶·Åù¤ò¤Þ¤È¤á¤Æ¤ß¤Þ¤·¤¿¡¥
¡¡¡¡¡¡
¡¡£Æ£Ï¡Ý£²£¹¤Î£²£°£°£²Ç¯£±£±·î£±£¶Æü¡ÊÅڡˤΣ±£·¡§£±£¸¡Ê£Ê£Ó£Ô¡Ë¤Î¥Ñ¥¹¤Ç¤Ï
£Ê£Á£Ò£Ì¤Î¥Û¡¼¥à¥Ú¡¼¥¸¤Ë¤¢¤ë¤È¤¦¤ê¥¢¥Ê¥í¥°±¿ÍѤǤ·¤¿¡£¡¡º£Æü¤Þ¤Ç¤Î´Ñ¬¤·¤¿
¥Æ¥ì¥á¥È¥ê¡¼¤ÈºÇ½ª¹Ô¤ÎʬÀÏ·ë²Ì¤òÊó¹ð¤·¤Æ¤ª¤­¤Þ¤¹¡£

AS30858C  16Nov2002
17:18-18:33(JST)
AOS   MEL  LOS  Elev
  5   287  208  50.1
Freq. 435.806-.787Hz
(JAS-2 No.111 A 740-1570)

HI HI AE 07 88 55 00 D4 90 B7 09 1A 84 65 73 4C 8A 87 94 75 9D 9E 9E 9C 96
HI HI AE 07 88 55 00 D4 90 B7 09 1A 77 5A 6F 51 8A 87 94 82 9E 9E 9F 9C 97 
HI HI AE 07 88 55 00 D4 90 B7 09 1A 68 52 6D 50 8A 87 94 7A 9E 9F 9F 9C 97 
HI HI AE 07 88 55 00 D4 90 B7 09 1A 58 4C 71 4E 8A 87 94 67 9E 9F 9F 9C 97 
HI HI AE 07 88 55 00 D4 90 B7 09 1A 4A 4A 76 4B 8B 88 94 7B 9E 9F 9F 9C 97 
HI HI AE 07 88 55 00 D4 90 B7 09 1A 3D 4A 77 4D 8B 88 95 73 9E 9F 9F 9C 97 
HI HI AE 07 88 55 00 D4 90 B7 09 1A 34 4C 77 4C 8C 88 95 63 9E 9F 9F 9C 97 
HI HI AE 07 88 55 00 D4 90 B7 09 1A 2E 50 75 4D 8B 88 95 78 9E 9F 9E 9C 97 
HI HI AE 07 88 55 00 D4 90 B7 09 14 2D 55 72 4E 8B 88 95 78 9E 9F 9E 9C 97 
HI HI AE 07 88 55 00 D4 E6 A0 09 14 2C 59 73 4D 8B 89 95 94 9F 9F 9E 9C 97 
HI HI AE 07 88 55 00 D4 E6 A0 09 14 31 5C 78 4B 8C 89 96 7C 9F 9F 9E 9D 97 
HI HI AE 07 88 55 00 D4 E6 A0 09 14 37 5F 79 4B 8D 8A 97 76 9F 9F 9E 9D 97 
HI HI AE 07 88 55 00 D4 E6 A0 09 14 45 5C 7A 4A 8D 8A 97 85 9F 9F 9E 9D 97
HI HI AE 07 88 55 00 D4 E6 A0 09 14 45 5E 7B 4A 8D 8B 98 75 9F 9F 9E 9D 97 
HI HI AE 07 88 55 00 D4 E6 A0 09 14 4C 5C 75 4D 8D 8A 97 87 9F 9F 9E 9D 97 
HI HI AE 07 88 55 00 D5 E6 A0 09 14 51 59 6B 52 8C 8A 97 76 9F 9F 9E 9D 97 
HI HI AE 07 88 55 00 D4 E6 A0 09 14 55 55 6C 52 8C 8A 97 81 9F 9F 9E 9D 97 
HI HI AE 07 88 55 00 D4 E6 A0 09 14 56 52 6D 52 8D 8A 97 81 9F 9F 9E 9D 97 
HI HI AE 07 88 55 00 D4 E6 A0 09 14 56 50 6B 51 8D 8B 98 78 9F 9F 9E 9D 97 
HI HI AE 07 88 55 00 D4 E6 A0 09 14 54 4E 68 53 8D 8B 98 77 9F 9F 9E 9D 97

AS30845C  15Nov2002
18:25-18:27(JST)
AOS   MEL  LOS  Elev
350   293  237  15.7
Freq. 435.789-.788Hz
(JAS-2 No.111 A 640-100)

HI HI AE 07 88 55 00 D4 00 00 09 00 35 7D 7D 48 8E 8A 97 9E 9C 9F 9E 9A 95 
HI HI AE 07 88 55 00 D4 00 00 09 00 3C 7C 7E 47 8E 8A 97 7D 9C 9E 9E 9A 95 
 
AS30831C  14Nov2002
17:35-17:38(JST)
AOS   MEL  LOS  Elev
  4   287  210  45.9
Freq. 435.786-.786Hz
(JAS-2 No.111 A 450-640) 

HI HI AE 07 88 55 00 D4 E7 A3 09 6D 5D 56 7D 4A 8E 8B 98 68 9A 9A 9C 9B 94 
HI HI AE 07 88 55 00 D4 E7 A3 09 6D 55 4F 7D 49 8E 8B 99 8A 9A 9A 9C 9B 94 
HI HI AE 07 88 55 00 D4 E7 A3 09 6D 4E 49 7E 48 8F 8C 99 81 9A 9A 9C 9B 94 
HI HI AE 07 88 55 00 D4 E7 A3 09 6D 4A 45 7E 48 8F 8C 99 6D 9A 9A 9C 9B 94 

AS30791C  08Nov2002
18:33-18:35(JST)
AOS   MEL  LOS  Elev
347   295  243  12.7
Freq. 435.788-.787Hz
(JAS-2 No.111 A 300-450)

HI HI AE 07 88 55 00 D4 21 27 09 77 7A 79 7D 4A 8D 89 97 AF 9B  6 9A 9D 93 
HI HI AE 07 88 55 00 D4 21 27 09 77 80 81 7E 4A 8E 8A 97 83 9B 96 9A 9D 93 
HI HI AE 07 88 55 00 D4 21 27 09 77 86 87 7F 4A 8E 8B 98 64 9B 96 9A 9D 93 
HI HI AE 07 88 55 00

------------------------¡¡ £Æ£Ï-£²£¹¤Îµ°Æ»Í×ÁÇ¡¡------------------------------        
 
¡¡¡¡¢£ µ°Æ»Í×ÁÇ£±¡§¡Öjamsat¡Ýkeps¡§£±£²£µ£¶¡×¤è¤ê         
¡¡¡¡¡¡¡¡¡¡¡¡¡¡¡¡¡¡¡¡SB KEPS @ AMSAT  $ORB02318.N
¡¡¡¡¡¡¡¡¡¡¡¡¡¡¡¡¡¡¡¡2Line Orbital Elements 02318.AMSAT

HR AMSAT ORBITAL ELEMENTS FOR AMATEUR SATELLITES IN NASA FORMAT
FROM WA5QGD FORT WORTH,TX November 14, 2002
SEND SUBSCRIBE/UNSUBSCRIBE TO majordomo@amsat.org ONLY
BID: ORB02318.N

¡¡DECODE 2-LINE ELSETS WITH THE FOLLOWING KEY:
¡¡1 AAAAAU 00  0  0 BBBBB.BBBBBBBB  .CCCCCCCC  00000-0  00000-0 0  DDDZ
¡¡2 AAAAA EEE.EEEE FFF.FFFF GGGGGGG HHH.HHHH III.IIII JJ.JJJJJJJJKKKKKZ
¡¡KEY: A-CATALOGNUM B-EPOCHTIME C-DECAY D-ELSETNUM E-INCLINATION F-RAAN
¡¡G-ECCENTRICITY H-ARGPERIGEE I-MNANOM J-MNMOTION K-ORBITNUM Z-CHECKSUM

FO-29
1 24278U 96046B   02317.95577495  .00000088  00000-0  12267-3 0 05557
2 24278 098.5286 117.3554 0351499 106.9247 257.0732 13.52863407308241

 ¢£ µ°Æ»Í×ÁÇ£²¡§¡Öjamsat¡Ýkeps¡§£±£²£µ£µ¡×¤è¤ê¡¡
¡¡¡¡¡¡¡¡¡¡¡¡¡¡SB KEPS @ AMSAT  $ORB02318.O
¡¡¡¡¡¡¡¡¡¡¡¡¡¡Orbital Elements  02318.OSCAR

HR AMSAT ORBITAL ELEMENTS FOR OSCAR SATELLITES
FROM WA5QGD FORT WORTH,TX November 14, 2002
SEND SUBSCRIBE/UNSUBSCRIBE TO majordomo@amsat.org ONLY
BID: ORB02318.O
TO ALL RADIO AMATEURS BT

Satellite: FO-29
Catalog number: 24278
Epoch time:      02317.95577495
Element set:    0555
Inclination:      098.5286 deg
RA of node:       117.3554 deg
Eccentricity:    0.0351499
Arg of perigee:   106.9247 deg
Mean anomaly:     257.0732 deg
Mean motion:   13.52863407 rev/day
Decay rate:        8.8e-07 rev/day^2
Epoch rev:           30824
Checksum:              346

-------------------¡¡¡¡FO-29¡ÊJAS-2)¤Î¥Æ¥ì¥á¥È¥ê¤Ë´Ø¤¹¤ë¾ðÊó¡¡¡¡----------------------¡¡
¡¡
£²¡Ë¾åµ­£²£°£°£²Ç¯£±£±·î£±£¶Æü¡ÊÅڡˤΥƥì¥á¥È¥ê¤Î£±£·:£±£¸¤Î¥Ñ¥¹¤ÎºÇ½ª¹Ô¤òʬÀϤ·¤Æ
¡¡¤ª¤­¤Þ¤¹¡£

AS30858C  16Nov2002
17:18-18:33(JST)
AOS   MEL  LOS  Elev
  5   287  208  50.1
Freq. 435.806-.787Hz
(JAS-2 No.111 A 740-1570)

HI HI AE 07 88 55 00 D4 E6 A0 09 14 54 4E 68 53 8D 8B 98 77 9F 9F 9E 9D 97 

¥Æ¥ì¥á¥È¥ê¡¡  Æâ¡¡ÍÆ¡¡ ¡¡     ´¹»»»»ÃÍ¡¡Ã± °Ì
£³£Ã	¼§µ¤¥»¥ó¥µ¡¼£Ú¼´=	41176.5	[nT]
£³£Ä	¼§µ¤¥»¥ó¥µ£Ø¼´	=	38235.3	[nT]
£´£Á	ÂÀÍÛÅÅÃÓȯÀ¸ÅÅή=	1019.6	[mA]
£´£Â	£Â½¼ÊüÅÅÅÅή	=	-373.2	[mA]
£´£Ã	£Âü»ÒÅÅ°µ	=	15.2	[V]
£´£Ä	£ÂÃæ´Öü»ÒÅÅ°µ	=	6.7	[V]
£µ£Á	¥Ð¥¹ÅÅ°µ	=	14.9	[V]
£µ£Â	£Ê£Ô£ÁÁ÷¿®ÅÅÎÏ	=	675.4	[mW]
£µ£Ã 	¹½Âβ¹ÅÙ£±	=	20.1	[¡î]
£µ£Ä	¹½Âβ¹ÅÙ£²	=	20.1	[¡î]
£¶£Á	¹½Âβ¹ÅÙ£³	=	20.5	[¡î]
£¶£Â	¹½Âβ¹ÅÙ£´	=	20.9	[¡î]
£¶£Ã	£Â¥»¥ë²¹ÅÙ	=	23.2	[¡î]

 ==========================¡¡FO-29¡Ê¤Õ¤¸£³¹æ¡Ë¤Î¥Æ¥ì¥á¥È¥êʬÀÏ¡¢£Ñ£Ó£Ï¾ðÊóÅù¡¡=====================
   
¡¡£³)[jamsat-bb:£±£²£µ£´£²¡Ï¤Ë¤ÆJAS-1£â¡ÊFO-20)±¿ÍѤˤĤ¤¤ÆJN1GKZ¿·°æ¤µ¤ó¤Î¥³¥á¥ó¥È¤¬¤¢¤ê¤Þ¤·¤¿¤Î¤Ç
¡¡¡¡¡¡Å¾ºÜ¤µ¤»¤Æ夭¤Þ¤·¤¿¡£

¡¡WH6BIE Kely¤µ¤ó¤¬FO-20¤ËQRV¤µ¤ì¤Æ¤¤¤Þ¤¹¡£27Æü 13»þ²á¤®¤Î¥Ñ¥¹¤ÇÎɹ¥
¤ËQSO¤Ç¤­¤Þ¤·¤¿¡£¤³¤Î¥Ñ¥¹¤Ç¤Ï¶å½£¤Þ¤Ç³«¤±¤Æ¤¤¤Þ¤·¤¿¤¬¡¢QSO¤·¤¿¤Î¤Ï»ä
¤À¤±¤Î¤è¤¦¤Ç¤·¤¿¡£
¡¡Ëè½µËö¡¢FO-20¤ÎÆüËܤȤΥѥ¹¤ËQRV¤¹¤ë¤È¤Î¤³¤È¤Ç¤·¤¿¤Î¤Ç¡¢Ãµ¤·¤Æ¤ß¤Æ
²¼¤µ¤¤¡£

JN1GKZ ¿·°æ
   jn1gkz@jamsat.or.jp     http://www.ne.jp/asahi/m-arai/gkz/
-------------
JAMSAT BB Mailing List
http://www.jamsat.or.jp/infoserv/mlist.html
 =================================================================================================
¡¡
¡¡£´¡Ë£Ê£Á£Ò£Ì ¤Î¥Û¡¼¥à¥Ú¡¼¥¸¤Ë±¿ÍÑͽÄ꤬µ­ºÜ¤µ¤ì¤Æ¤¤¤Þ¤·¤¿¤Î¤Ç¤´¾Ò²ð¤·¤Þ¤¹¡¥
       ¡Ê http://www.jarl.or.jp/Japanese/3_Fuji/new/uy.htm ¡Ë
       
¡¡¡¡¡¡¡¡¡¡¡¡¡¡¡¡¡ö¡ö¡ö¡¡±¿ÍÑͽÄê¤Ë¤Ä¤¤¤Æ¡¡¡ö¡ö¡ö

¡¡¡¡¡¡¡¡¡¡¡¡¡¡¡¡Åöʬ¤Î´Ö ¡¡¡¡¡¡¡¡¥¢¥Ê¥í¥°·Ï±¿ÍÑ

¡¡¡¡¡ö¡¡¤Ê¤ª¡¤±¿ÍÑͽÄê¤ÏÅÔ¹ç¤Ë¤è¤ê¡¤Êѹ¹¤¹¤ë¤³¤È¤¬¤¢¤ê¤Þ¤¹¤Î¡¤¤Ç¤¢¤é¤«¤¸¤á¤´Î»¾µ´ê¤¤¤Þ¤¹¡£

¡¡¾È²ñÀè¡¡¡§¡¡lab@jarl.or.jp

¡¡ºÇ¿·¤Î¾ðÊó¤Ï¥Æ¥ì¥Û¥ó¥µ¡¼¥Ó¥¹¡Ê£°£³¡Ý£³£¹£´£²¡Ý£±£°£°£°¡Ë¤ò¤ªÊ¹¤­¤¯¤À¤µ¤¤¡£¡¡¡¡
¡¡ 
¡¡¡¡¤Õ¤¸£²¹æ¡Ê£Ê£Á£Ó¡Ý£±£â¡Ë¤Î±¿ÍÑ 

¡¡£Ã£×¥Æ¥ì¥á¥È¥ê¤Îµ¡Ç½¤Ë¾ã³²¤¬È¯À¸¤·¤Æ¤¤¤Þ¤¹¡£¾ÜºÙ¤Ï¡Ö¤Õ¤¸£²¹æ¡×¤Î¸½¶·¤ò¤´Í÷¤¯¤À¤µ¤¤¡£
¡¡±¿ÍѤϥ¢¥Ê¥í¥°·Ï¤ÎϢ³±¿ÍѤȤ·¤Þ¤¹¡£ 
 ¡¡¡¡¡¡¡¡
-----------------------    £Æ£Ï¡Ý£²£°¡ÊJAS-£±£â¡ËÆ»Í×ÁÇ   -------------------------
 ¡¡
 ¡¡¢£ µ°Æ»Í×ÁÇ£± ¡§½Ðŵ¤Ï£Æ£Ï-£²£¹¡Ö¤Õ¤¸£³¹æ¡×¤ËƱ¤¸¡¥
  
FO-20
1 20480U 90013C   02317.95151252 -.00000031  00000-0  70446-5 0 04514
2 20480 099.0312 293.9296 0539810 222.6662 133.1308 12.83325138598122
 
 ¡¡¢£ µ°Æ»Í×ÁÇ£² ¡§½Ðŵ¤Ï£Æ£Ï¡Ý£²£¹¡Ö¤Õ¤¸£³¹æ¡×¤ËƱ¤¸¡¥
               
Satellite: FO-20
Catalog number: 20480
Epoch time:      02317.95151252
Element set:    0451
Inclination:      099.0312 deg
RA of node:       293.9296 deg
Eccentricity:    0.0539810
Arg of perigee:   222.6662 deg
Mean anomaly:     133.1308 deg
Mean motion:   12.83325138 rev/day
Decay rate:       -3.1e-07 rev/day^2
Epoch rev:           59812
Checksum:              281

--------------------------------------------------------------------------------¡¡
¡¡        ¢£ ¤Õ¤¸£²¹æ¡¿£Æ£Ï¡Ý£²£°/JAS-1£â ¢£  ¡¡   
            
¡¡¡¡¡¡¡¡¡¡¡¡¡¡¡¡¡¡¡¡¡Ö¤Õ¤¸£²¹æ¡×¡¡¸½¶·                                                                                  
             
   JAS-1b¡Ê¤Õ¤¸£²¹æ¡Ë¤Î£Ã£×¥Æ¥ì¥á¥È¥ê¿®¹æ¤Ë¡¤£±£¹£¹£·Ç¯£±£°·î£±£²Æü£±£²»þ¡Ê£Ê£Ó£Ô¡Ë¤Î
¡¡ÆüËܾå¶õÄ̲á»þ¡¤£³·å¤Î¿ô»ú¤¬·«¤êÊÖ¤µ¤ì¤ë¤Ï¤º¤¬£³¸Ä¤ÎĹ²»¤Î·«¤êÊÖ¤·¤È¤Ê¤Ã¤Æ¤¤¤ë¤È¤¤¤¦
¡¡°Û¾ï¤¬È¯¸«¤µ¤ì¤Þ¤·¤¿¡£¤³¤ÎÉÔ¶ñ¹ç¤Ï¼¡¤ÎÄ̲á»þ¤«¤é¤Ï²óÉü¤·¤Æ¤¤¤Þ¤·¤¿¤¬£±£³Æü£±£µ»þ£²£°Ê¬¤Î
¡¡Ä̲á»þ¤ËºÆ¤Ó´Ñ¬¤µ¤ì¤Þ¤·¤¿¡£¸½ºß¤Ï£Á£°¤ÎÁ÷¿®¤¬Â³¤¤¤Æ¤¤¤Þ¤¹¡£±ÒÀ±¤Î¥¢¥Ê¥í¥°·ÏÃæ·Ñ¥â¡¼¥É
¡¡Æ°ºî¤Ï°Û¾ï¤¬Ìµ¤¯¡¤Àµ¾ï»þ¤Î¥Æ¥ì¥á¥È¥êÆâÍƤ«¤é¤Ï±ÒÀ±¤ÎÆ°ºî¤Ë°Û¾ï¤Ïǧ¤á¤é¤ì¤Þ¤»¤ó¡£½¾¤Ã¤Æ¡¤
¡¡Ä¾¤Á¤Ë±ÒÀ±¤Î¥ß¥Ã¥·¥ç¥ó¤Ë±Æ¶Á¤¹¤ë¤³¤È¤Ï̵¤¤¤ÈͽÁÛ¤µ¤ì¤Þ¤¹¤Î¤Ç¡¤ÅöÌ̤ϥ¢¥Ê¥í¥°·ÏÃæ·Ñ
¡¡¥â¡¼¥É¤ò·Ñ³¤·¤Þ¤¹¡£±ÒÀ±¤Ï´û¤ËÂǤÁ¾å¤²¤Æ¤«¤é£·Ç¯£¸¥ö·î¤ò·Ð¤Æ¤ª¤ê¤Þ¤¹¤Î¤Ç¡¤º£¸å¤Ï´Æ»ë¤ò
¡¡¶¯²½¤¹¤ëͽÄê¤Ç¤¹¡£¥¢¥Þ¥Á¥å¥¢³Æ°Ì¤Î¥ì¥Ý¡¼¥È¤ò¤ªÂÔ¤Á¤·¤Þ¤¹¡£
¡¡-------------------------------------------------------------------------------- 
¡¡¡¡1997ǯ10·î14Æü¡¡00»þ35ʬ ³Îǧ¤Î¥Æ¥ì¥á¥È¥ê²» 151 KB ¡Ê£Á£°¡Ë 
¡¡¡¡1997ǯ10·î14Æü¡¡11»þ10ʬ ³Îǧ¤Î¥Æ¥ì¥á¥È¥ê²» 216 KB ¡Ê°Û¾ï¥­¡¼¥¤¥ó¥°¡Ë 

  °Ê¾å¡¡£Ê£Á£Ò£Ì¤Î¥Û¡Ý¥à¥Ú¡¼¥¸¤Î http://www.jarl.or.jp/Japanese/3_Fuji/new/fuji.htm

===================== FO-20¡¡¤Õ¤¸£²¹æ¡¡¤Î¥Æ¥ì¥á¥È¥ê´Ñ¬·ë²Ì¡¡====================

  £³·î£¸Æü¡Ê¶â¡Ë£±£¸¡§£±£¸¡ÊJST)¤Î´Ñ¬·ë²Ì¤Ç¤Ï¥Æ¥ì¥á¥È¥ê¤Ï¡¢°ÊÁ°´Ñ¬¤·¤¿Ã±°ì¼þÇÈ¿ô¤Î
Àµ¸¹ÇȤ¬¥É¥Ã¥×¥é¡¼¸ú²Ì¤Ç¼þÇÈ¿ô¤¬¤º¤ì¤Æ¤¤¤¯¤Î¤ß¤Î¾õÂ֤Ǥ·¤¿¡£
                                         
   =============   JAS-2 ¡Ê¤Õ¤¸£³¹æ¡Ë¤È¸½ºß¤Þ¤Ç¤Î¾ðÊó   ===========
  
  £Á¡¥ÅÅÏäˤè¤ë¤Õ¤¸£³¹æ¤Î±¿ÍѾðÊó
      ¼ÒÃÄË¡¿ÍÆüËÜ¥¢¥Þ¥Á¥å¥¢Ï¢ÌÁ¤Ë¤è¤ë¥µ¡¼¥Ó¥¹
           £Ô£Å£Ì ¡¥   £°£³¡Ý £³£¹£´£² ¡Ý £±£°£°£°
  £Â¡¥¥¢¥Þ¥Á¥å¥¢ÌµÀþ£Æ£Á£Ø¥µ¡¼¥Ó¥¹
      £Ê£Á£Ò£Ì¤Ë¤è¤ë¤Õ¤¸£³¹æ¤Îµ°Æ»¾ðÊó¡Ê¥ª¡¼¥Ó¥Ã¥È¥«¥ì¥ó¥À¡¼¡Ë
         £Æ£Á£Ø £Î£ï¡¥  £°£³¡Ý £³£²£³£³ ¡Ý£°£°£µ£µ
  £Ã¡¥£×£×£×¥Ö¥é¥¦¥¶¤Ç¾ðÊó¤ò´Êñ¤Ë¸«¤ì¤ë¿Í¤Î¤¿¤á¤Ë£Ê£Á£Ó-1,£Ê£Á£Ó¡¾£±£â,
¡¡¡¡¡¡£Ê£Á£Ó¡¾£²¡Ê¤Õ¤¸£±¹æ¤«¤é¤Õ¤¸£³¹æ¤Î±ÒÀ±¤È¤·¤Æ¤Î±¿ÍѤµ¤ì¤ë¤Þ¤Ç¤Î̾Á°¡Ë¤Î
¡¡¡¡¡¡³µÍס¢ÂǤÁ¾å¤²¤Þ¤Ç¤Î¾õ¶·¡¢±¿ÍÑÃæ¤Ë¤ª¤±¤ë¾õ¶·¤òÀâÌÀ¤·¤¿¥Û¡¼¥à¥Ú¡¼¥¸¤ò
¡¡¡¡¡¡¾Ò²ð¤·¤Æ¤ª¤­¤Þ¤¹¡¥

